Preview of NWS' New Version of Forecast
This preview is not operational and should not be used for support decisions.

Regional Weather Roundup (RWR)

Issued by National Weather Service (NWS)

                            
000
ASUS45 KCYS 231010
RWRWY 

WYOMING REGIONAL WEATHER ROUNDUP
NATIONAL WEATHER SERVICE CHEYENNE WY
400 AM MDT THU MAY 23 2019

NOTE:  "FAIR" INDICATES FEW OR NO CLOUDS BELOW 12,000 FEET
WITH NO SIGNIFICANT WEATHER AND/OR OBSTRUCTIONS TO VISIBILITY.

WYZ001-231100-
YELLOWSTONE NATIONAL PARK
  
CITY           SKY/WX    TMP DP  RH WIND       PRES   REMARKS
LK YELLOWSTONE NOT AVBL                                               
W YELLOWSTONE  NOT AVBL                                               

$$
WYZ002>013-054>058-071-098>099-231100-
NORTHERN WYOMING
  
CITY           SKY/WX    TMP DP  RH WIND       PRES   REMARKS
JACKSON        FAIR      37  25  61 N14G20    29.98S WCI  28          
CODY           CLOUDY    39  36  89 S6        30.08F WCI  35          
GREYBULL       FAIR      41  39  93 SW5       30.05S                  
WORLAND        FAIR      35  34  96 S8        30.07R WCI  29          
SHERIDAN       FAIR      35  32  88 CALM      30.08S                  
BUFFALO        FAIR      39  31  72 NW5       30.08F                  
GILLETTE       FAIR      33  32  96 CALM      30.07F                  
HULETT         FOG       34  34 100 S5        30.09  VSB 1/2 WCI  30  
NEWCASTLE      CLOUDY    36  36 100 NW6       30.10  WCI  31          

$$
WYZ014>020-022>026-101>103-231100-
CENTRAL WYOMING
  
CITY           SKY/WX    TMP DP  RH WIND       PRES   REMARKS
BIG PINEY      CLOUDY    30  27  88 NW5       29.97F WCI  25          
PINEDALE       CLOUDY    30  28  93 W6        29.97  WCI  24          
DUBOIS         CLOUDY    32  30  93 SE14      30.05  WCI  22          
LANDER         CLOUDY    38  34  85 W6        30.06F WCI  33          
RIVERTON       CLOUDY    35  33  92 NW3       30.08S                  
CASPER         CLOUDY    31  31 100 CALM      30.10S                  
DOUGLAS        CLOUDY    36  36 100 NW6       30.11R WCI  31          

$$
WYZ021-027>030-104>119-231100-
SOUTHERN WYOMING
  
CITY           SKY/WX    TMP DP  RH WIND       PRES   REMARKS
EVANSTON       FLURRIES  32  28  85 E30G41    29.84F WCI  18          
KEMMERER       FAIR      32  28  86 NE32G47   29.91  WCI  17          
FORT BRIDGER   LGT SNOW  34  32  93 E20G26    29.95  WCI  22          
ROCK SPRINGS   LGT SNOW  31  29  92 NE35G43   29.93F FOG     WCI  15  
DIXON          LGT RAIN  39  35  87 E7        29.94F WCI  34          
RAWLINS        CLOUDY    34  28  79 E14       30.02F WCI  25          
SARATOGA       LGT SNOW  32  32 100 CALM      30.02F VSB 1            
LARAMIE        CLOUDY    31  29  92 N3        30.06S                  
CHEYENNE         N/A    N/A N/A N/A MISG      30.09S                  
TORRINGTON     FAIR      30  29  96 CALM      30.09S                  
PINE BLUFFS    CLOUDY    34  34 100 NW5       30.09S WCI  30          

$$